2010 VZ

Initial reported observation by Mt. Lemmon Survey on 2010-11-02.
(Discoverer will be defined when the object is numbered. See this note on how discoverers are determined.)

Orbit

Orbit type: Apollo
Potentially Hazardous Asteroid

Note: WebGL enabled browser required.

epoch2023-02-25.0
epoch JD2460000.5
perihelion date2022-05-17.49338
perihelion JD2459716.99338
argument of perihelion (°)215.58874
ascending node (°)181.94317
inclination (°)8.46395
eccentricity0.5923043
perihelion distance (AU)0.9972414
Tisserand w.r.t. Jupiter3.2
ΔV w.r.t. Earth (km/sec)6.9
semimajor axis (AU)2.4460433
mean anomaly (°)73.04169
mean daily motion (°/day)0.25763660
aphelion distance (AU)3.895
period (years)3.83
P-vector [x]0.79322912
P-vector [y]0.58719358
P-vector [z]0.16121808
Q-vector [x]-0.60890283
Q-vector [y]0.76706670
Q-vector [z]0.20210399
absolute magnitude19.31
phase slope0.15
uncertainty0
referenceMPO 740240
observations used107
oppositions2
arc length (days)1541
first opposition used2010
last opposition used2015
residual rms (arc-secs)0.70
perturbers coarse indicatorM-v
perturbers precise indicator003Ek
first observation date used2010-11-02.0
last observation date used2015-01-21.0
computer nameMPCLINUX
JD of orbit computation2457044.691855
perihelion JD uncertainty (days)5.6015E-05
argument of perihelion uncertainty (°)5.4305E-05
ascending node uncertainty (°)4.8430E-05
inclination uncertainty (°)6.8175E-06
eccentricity uncertainty 3.9639E-08
perihelion distance uncertainty (AU)9.4268E-08
Minimum Orbit Intersection Distances (in AU)
for orbit epoch: 2460000.5, reference: E2023-E12
Mercury0.67254
Venus0.27586
Earth0.04224
Mars0.16729
Jupiter1.56549
Saturn5.95388
Uranus14.7882
Neptune26.8392

Observations

109 total observations over interval: 2010 11 02.07441 – 2015 01 21.55122
These data are available for download (format description).

Date (UT) J2000 RA J2000 Dec Magn Location Ref
2010 11 02.07441 20 17 53.77 -23 15 38.8 20.1 V G96 – Mt. Lemmon Survey MPS 354007
2010 11 02.08198 20 17 55.32 -23 15 45.0 19.9 V G96 – Mt. Lemmon Survey MPS 354007
2010 11 02.08958 20 17 56.79 -23 15 50.2 20.3 V G96 – Mt. Lemmon Survey MPS 354007
2010 11 02.09719 20 17 58.34 -23 15 55.8 20.0 V G96 – Mt. Lemmon Survey MPS 354007
2010 11 02.14045 20 18 07.12 -23 16 27.2 20.4 V G96 – Mt. Lemmon Survey MPS 354007
2010 11 02.14111 20 18 07.27 -23 16 27.8 20.3 V G96 – Mt. Lemmon Survey MPS 354007
2010 11 02.14178 20 18 07.38 -23 16 28.3 20.6 V G96 – Mt. Lemmon Survey MPS 354007
2010 11 02.14245 20 18 07.56 -23 16 28.7 20.3 V G96 – Mt. Lemmon Survey MPS 354007
2010 11 03.05562 20 21 21.34 -23 27 46.9 19.5 R H01 – Magdalena Ridge Observatory, Socorro MPS 354007
2010 11 03.06161 20 21 22.58 -23 27 51.3 19.9 R H01 – Magdalena Ridge Observatory, Socorro MPS 354007
2010 11 03.06995 20 21 24.30 -23 27 57.4 19.5 R H01 – Magdalena Ridge Observatory, Socorro MPS 354007
2010 11 03.07713 20 21 25.89 -23 28 02.1 20.4 V 291 – LPL/Spacewatch II MPS 354007
2010 11 03.08102 20 21 26.67 -23 28 04.9   291 – LPL/Spacewatch II MPS 354007
2010 11 03.08302 20 21 27.02 -23 28 07.0 19.7 R H01 – Magdalena Ridge Observatory, Socorro MPS 354007
2010 11 03.08492 20 21 27.50 -23 28 07.4   291 – LPL/Spacewatch II MPS 354007
2010 11 04.000043 20 24 45.59 -23 39 19.0   H21 – Astronomical Research Observatory, Westfield MPS 354007
2010 11 04.010505 20 24 47.80 -23 39 26.6 20.4 V H21 – Astronomical Research Observatory, Westfield MPS 354007
2010 11 04.021064 20 24 50.06 -23 39 33.5   H21 – Astronomical Research Observatory, Westfield MPS 354007
2010 11 04.07378 20 25 01.56 -23 40 11.2 19.7 R H01 – Magdalena Ridge Observatory, Socorro MPS 354007
2010 11 04.08530 20 25 04.01 -23 40 19.4 19.6 R H01 – Magdalena Ridge Observatory, Socorro MPS 354007
2010 11 04.09126 20 25 05.28 -23 40 23.6 19.5 R H01 – Magdalena Ridge Observatory, Socorro MPS 354007
2010 11 04.09430 20 25 05.92 -23 40 25.8 19.8 R H01 – Magdalena Ridge Observatory, Socorro MPS 354007
2010 11 06.05835 20 32 26.24 -24 03 45.9 19.6 R 448 – Desert Moon Observatory, Las Cruces MPS 355655
2010 11 06.07723 20 32 30.52 -24 03 58.3 19.6 R 448 – Desert Moon Observatory, Las Cruces MPS 355655
2010 11 06.10529 20 32 36.67 -24 04 17.9 20.3 R 448 – Desert Moon Observatory, Las Cruces MPS 355655
2010 11 07.00440 20 36 05.39 -24 14 41.7 20.7 V H21 – Astronomical Research Observatory, Westfield MPS 355655
2010 11 07.00796 20 36 06.22 -24 14 44.2 20.7 V H21 – Astronomical Research Observatory, Westfield MPS 355655
2010 11 07.01897 20 36 08.73 -24 14 51.5 20.9 V H21 – Astronomical Research Observatory, Westfield MPS 355655
2010 11 07.08213 20 36 23.43 -24 15 34.4 19.8 R H01 – Magdalena Ridge Observatory, Socorro MPS 355655
2010 11 07.08889 20 36 24.95 -24 15 38.6 20.4 R H01 – Magdalena Ridge Observatory, Socorro MPS 355655
2010 11 07.09678 20 36 26.75 -24 15 44.1 19.7 R H01 – Magdalena Ridge Observatory, Socorro MPS 355655
2010 11 07.10082 20 36 27.66 -24 15 46.6 19.8 R H01 – Magdalena Ridge Observatory, Socorro MPS 355655
2010 11 10.011394 20 48 13.29 -24 47 52.3 20.1 V H21 – Astronomical Research Observatory, Westfield MPS 355655
2010 11 10.018974 20 48 15.12 -24 47 57.8 19.9 V H21 – Astronomical Research Observatory, Westfield MPS 355655
2010 11 10.026407 20 48 16.98 -24 48 02.1 20.3 V H21 – Astronomical Research Observatory, Westfield MPS 355655
2010 11 15.008381 21 10 13.43 -25 36 33.4   H21 – Astronomical Research Observatory, Westfield MPS 357586
2010 11 15.017538 21 10 15.93 -25 36 37.8 20.2 V H21 – Astronomical Research Observatory, Westfield MPS 357586
2010 11 15.027463 21 10 18.63 -25 36 42.8 20.4 V H21 – Astronomical Research Observatory, Westfield MPS 357586
2010 12 06.037317 23 09 39.36 -26 03 36.3 20.0 V H21 – Astronomical Research Observatory, Westfield MPS 359239
2010 12 06.040996 23 09 40.76 -26 03 34.2 19.6 V H21 – Astronomical Research Observatory, Westfield MPS 359239
2010 12 06.045479 23 09 42.49 -26 03 31.7 20.0 V H21 – Astronomical Research Observatory, Westfield MPS 359239
2010 12 13.917102 00 03 36.449 -24 04 12.11   C51 – WISE MPS 1746760
2010 12 13.983190 00 04 04.219 -24 02 48.95   C51 – WISE MPS 1746760
2010 12 14.046191 00 04 30.11 -24 01 53.5 19.9 V H21 – Astronomical Research Observatory, Westfield MPS 359239
2010 12 14.051845 00 04 32.39 -24 01 46.2 19.5 V H21 – Astronomical Research Observatory, Westfield MPS 359239
2010 12 14.057494 00 04 34.67 -24 01 38.9 20.0 V H21 – Astronomical Research Observatory, Westfield MPS 359239
2010 12 14.063462 00 04 37.10 -24 01 31.2 19.8 V H21 – Astronomical Research Observatory, Westfield MPS 359239
2010 12 14.08883 00 04 47.07 -24 00 32.0 19.2 R I19 – Observatorio El Gato Gris, Tanti MPS 359239
2010 12 14.09145 00 04 48.20 -24 00 28.4 19.4 R I19 – Observatorio El Gato Gris, Tanti MPS 359239
2010 12 14.09958 00 04 51.47 -24 00 17.9 19.4 R I19 – Observatorio El Gato Gris, Tanti MPS 359239
2010 12 19.736332 00 44 12.679 -21 39 38.81   C51 – WISE MPS 1746760
2010 12 19.736459 00 44 12.823 -21 39 38.92   C51 – WISE MPS 1746760
2010 12 20.000941 00 46 02.666 -21 32 01.00   C51 – WISE MPS 1746760
2010 12 20.133118 00 46 57.478 -21 28 10.02   C51 – WISE MPS 1746760
2010 12 20.265422 00 47 52.416 -21 24 17.93   C51 – WISE MPS 1746760
2010 12 20.397727 00 48 47.210 -21 20 23.86   C51 – WISE MPS 1746760
2010 12 20.463816 00 49 14.554 -21 18 26.53   C51 – WISE MPS 1746760
2010 12 20.529904 00 49 41.923 -21 16 29.10   C51 – WISE MPS 1746760
2010 12 20.596120 00 50 09.343 -21 14 31.52   C51 – WISE MPS 1746760
2010 12 20.662208 00 50 36.650 -21 12 32.80   C51 – WISE MPS 1746760
2010 12 20.728297 00 51 03.982 -21 10 35.04   C51 – WISE MPS 1746760
2010 12 20.794385 00 51 31.274 -21 08 35.48   C51 – WISE MPS 1746760
2010 12 20.794513 00 51 31.361 -21 08 36.35   C51 – WISE MPS 1746760
2010 12 20.99278 00 52 53.23 -21 02 37.9   C51 – WISE MPS 363045
2010 12 20.99291 00 52 53.32 -21 02 38.7   C51 – WISE MPS 363046
2010 12 21.12508 00 53 47.89 -20 58 37.4   C51 – WISE MPS 363046
2010 12 21.25739 00 54 42.36 -20 54 36.0   C51 – WISE MPS 363046
2010 12 21.38957 00 55 36.83 -20 50 31.8   C51 – WISE MPS 363046
2010 12 21.52187 00 56 31.33 -20 46 30.3   C51 – WISE MPS 363046
2010 12 25.19262 01 21 18.27 -18 46 36.1 19.9 V 291 – LPL/Spacewatch II MPS 363046
2010 12 25.19663 01 21 19.87 -18 46 27.2 20.1 V 291 – LPL/Spacewatch II MPS 363046
2010 12 25.20053 01 21 21.37 -18 46 19.7 19.8 V 291 – LPL/Spacewatch II MPS 363046
2010 12 27.081070 01 33 43.75 -17 39 58.6 20.6 V H21 – Astronomical Research Observatory, Westfield MPS 363046
2010 12 27.086434 01 33 45.80 -17 39 46.8 20.6 V H21 – Astronomical Research Observatory, Westfield MPS 363046
2010 12 27.092880 01 33 48.28 -17 39 32.9 20.4 V H21 – Astronomical Research Observatory, Westfield MPS 363046
2011 01 02.090905 02 11 16.38 -13 53 33.7 19.7 V H21 – Astronomical Research Observatory, Westfield MPS 363403
2011 01 02.095825 02 11 18.11 -13 53 22.0 20.1 V H21 – Astronomical Research Observatory, Westfield MPS 363403
2011 01 02.100734 02 11 19.83 -13 53 10.7 20.2 V H21 – Astronomical Research Observatory, Westfield MPS 363403
2011 01 13.07622 03 11 01.52 -06 49 59.7 20.2 V 291 – LPL/Spacewatch II MPS 365789
2011 01 13.08015 03 11 02.65 -06 49 51.0 20.0 V 291 – LPL/Spacewatch II MPS 365789
2011 01 13.08389 03 11 03.75 -06 49 42.6 20.0 V 291 – LPL/Spacewatch II MPS 365789
2011 01 21.064491 03 47 26.37 -02 10 34.0 20.3 V H21 – Astronomical Research Observatory, Westfield MPS 367215
2011 01 21.072517 03 47 28.35 -02 10 18.4 20.7 V H21 – Astronomical Research Observatory, Westfield MPS 367215
2011 01 21.081049 03 47 30.45 -02 10 01.6 20.5 V H21 – Astronomical Research Observatory, Westfield MPS 367215
2011 02 10.083384 04 59 29.32 +06 38 14.5   H21 – Astronomical Research Observatory, Westfield MPS 369649
2011 02 10.093676 04 59 31.16 +06 38 26.5 20.8 V H21 – Astronomical Research Observatory, Westfield MPS 369649
2011 02 10.104276 04 59 33.04 +06 38 39.6 20.9 V H21 – Astronomical Research Observatory, Westfield MPS 369649
2011 02 10.12247 04 59 36.67 +06 39 03.6   291 – LPL/Spacewatch II MPS 369649
2011 02 10.12651 04 59 37.47 +06 39 08.6   291 – LPL/Spacewatch II MPS 369649
2011 02 10.13100 04 59 38.20 +06 39 14.1 21.0 V 291 – LPL/Spacewatch II MPS 369649
2014 06 03.18521 22 39 45.16 +01 22 02.7 21.0 R 950 – La Palma MPS 517944
2014 06 03.18714 22 39 45.45 +01 22 04.4 21.1 R 950 – La Palma MPS 517944
2014 06 03.18907 22 39 45.74 +01 22 06.3 21.1 R 950 – La Palma MPS 517944
2014 06 03.19100 22 39 46.01 +01 22 08.3 21.0 R 950 – La Palma MPS 517944
2014 06 03.19293 22 39 46.30 +01 22 10.2 21.3 R 950 – La Palma MPS 517944
2014 06 03.19486 22 39 46.56 +01 22 12.1 21.1 R 950 – La Palma MPS 517944
2014 06 26.42069 23 43 28.20 +08 12 16.3 21.2 R 291 – LPL/Spacewatch II MPS 520045
2014 06 26.42444 23 43 28.92 +08 12 20.4 21.3 R 291 – LPL/Spacewatch II MPS 520045
2014 06 26.42819 23 43 29.61 +08 12 24.9 20.9 R 291 – LPL/Spacewatch II MPS 520045
2014 10 15.43901 08 39 44.46 +07 36 33.5   291 – LPL/Spacewatch II MPS 538946
2014 10 15.44132 08 39 44.86 +07 36 29.9   291 – LPL/Spacewatch II MPS 538946
2014 10 15.44369 08 39 45.34 +07 36 28.3   291 – LPL/Spacewatch II MPS 538946
2014 11 04.51681 09 31 28.13 +02 18 54.5 20.5 R 291 – LPL/Spacewatch II MPS 544307
2014 11 04.51925 09 31 28.41 +02 18 52.1 20.5 R 291 – LPL/Spacewatch II MPS 544307
2014 11 04.52169 09 31 28.73 +02 18 50.4 20.1 R 291 – LPL/Spacewatch II MPS 544307
2015 01 21.51079 10 04 55.839 -01 50 11.42 20.9 w F51 – Pan-STARRS 1, Haleakala MPS 562719
2015 01 21.52434 10 04 54.754 -01 50 02.50 21.1 w F51 – Pan-STARRS 1, Haleakala MPS 562719
2015 01 21.53780 10 04 53.679 -01 49 53.77 21.0 w F51 – Pan-STARRS 1, Haleakala MPS 562719
2015 01 21.55122 10 04 52.598 -01 49 44.86 20.9 w F51 – Pan-STARRS 1, Haleakala MPS 562719